Regional Weather Roundup
Issued by NWS

Home | Current Version | Previous Version | Graphics & Text | Print | Product List | Glossary On
Versions: 1 2 3 4 5 6 7 8 9 10 11 12 13 14 15 16 17 18 19 20 21 22 23 24 25 26 27 28 29 30 31 32 33 34 35 36 37 38 39 40 41 42 43 44 45 46 47 48 49 50
000
ASUS45 KTFX 262010
RWRMT
MONTANA REGIONAL WEATHER ROUNDUP
NATIONAL WEATHER SERVICE GREAT FALLS MT
200 PM MDT MON SEP 26 2016

NOTE: "FAIR" INDICATES FEW OR NO CLOUDS BELOW 12000 FEET WITH NO
SIGNIFICANT WEATHER AND/OR OBSTRUCTIONS TO VISIBILITY.

MTZ001>007-043-262100-
WEST OF THE DIVIDE

CITY           SKY/WX    TMP DP  RH WIND       PRES   REMARKS
KALISPELL      MOSUNNY   68  44  42 SW5       30.27F
MISSOULA       SUNNY     66  46  48 CALM      30.30F
BUTTE          CLOUDY    69  36  29 N5        30.38F
MULLAN PASS    MOSUNNY   63  45  51 CALM      30.37F
ANACONDA         N/A     73  36  25 SE8       30.33F
DEER LODGE       N/A     68  45  42 NE5       30.37F
EUREKA           N/A     70  45  40 SW5       30.23F
HAMILTON         N/A     68  48  49 CALM      30.29F
LIBBY            N/A     64  45  48 NW5       30.24F
PLAINS           N/A     72  46  39 CALM      30.24F
RONAN            N/A     69  48  46 NW6       30.29F
$$

MTZ008-052>055-262100-
SOUTHWEST MONTANA

CITY           SKY/WX    TMP DP  RH WIND       PRES   REMARKS
BOZEMAN        CLOUDY    71  42  35 CALM      30.34F
DILLON         CLOUDY    70  39  32 CALM      30.37F
W YELLOWSTONE  CLOUDY    63  37  39 CALM      30.46F
ENNIS          SUNNY     70  39  32 CALM      30.42F
THREE FORKS      N/A     71  68  90 NE1       30.29F
TWIN BRIDGES     N/A     68  42  38 S10       30.31F
$$

MTZ009-010-012-014-046-048-049-054-262100-
EAST SLOPES AND CENTRAL MONTANA

CITY           SKY/WX    TMP DP  RH WIND       PRES   REMARKS
CUT BANK       SUNNY     77  36  22 SW16      30.19F
GREAT FALLS    CLOUDY    76  40  27 SW16      30.21F
MALMSTROM AFB  CLOUDY    75  38  26 SW16G24   30.21F
HELENA         CLOUDY    72  44  36 E10       30.28F
AUGUSTA          N/A     77  30  17 SW13G21   30.23F
BOWMANS CRNR     N/A     72  40  31 S18       30.23F
CHOTEAU          N/A     77  30  18 CALM      30.23F
CONRAD           N/A     76  43  30 N5        30.20F
FAIRFIELD        N/A     75  41  29 S13G18    30.20F
POWER            N/A     75  38  25 SW14G21   30.20F
RAYNESFORD       N/A     75  38  26 W10G16    30.23F
$$

MTZ011-013-016-021-045-047-050-051-262100-
NORTH CENTRAL MONTANA

CITY           SKY/WX    TMP DP  RH WIND       PRES   REMARKS
HAVRE          MOSUNNY   71  45  39 SW12      30.17F
LEWISTOWN      SUNNY     70  43  37 N3        30.25F
N BAR RANCH      N/A     68  41  37 E5        30.29F
CHINOOK          N/A     72  43  35 W9        30.17F
DENTON           N/A     71  42  34 NW6       30.19F
GEYSER           N/A     77  30  17 SW13G21   30.23F
GRASS RANGE      N/A     70  41  35 NW8       30.21F
JUDITH GAP       N/A     70  42  36 W2G17     30.26F
ROY              N/A     69  46  43 MISG      30.22F
STANFORD         N/A     70  42  36 S1        30.26F
WINIFRED         N/A     68  46  44 MISG      30.23F
$$

MTZ017>020-022>027-061-062-262100-
NORTHEAST MONTANA

CITY           SKY/WX    TMP DP  RH WIND       PRES   REMARKS
GLASGOW        SUNNY     69  41  36 W10       30.19F
JORDAN           N/A     72  44  36 W9        30.21F
SIDNEY         SUNNY     68  37  32 W7G17     30.18F
WOLF POINT     CLOUDY    70  38  31 W13       30.19F
POPLAR           N/A     66  39  37 W14       30.19F
SCOBEY           N/A     69  35  28 W12       30.15F
$$

MTZ028>42-056>058-262100-
SOUTHCENTRAL AND SOUTHEAST MONTANA

CITY           SKY/WX    TMP DP  RH WIND       PRES   REMARKS
BAKER          SUNNY     64  40  41 NW10G20   30.24F
BILLINGS       MOSUNNY   70  43  37 SW13      30.27F
LIVINGSTON     SUNNY     74  40  29 W12G22    30.31F
MILES CITY     SUNNY     70  43  37 W12       30.24F
BIG TIMBER     SUNNY     73  43  33 W26G33    30.29F
EKALAKA          N/A     64  38  38 W12       30.22F
FORSYTH          N/A     70  45  40 W9        30.24F
HARLOWTON        N/A     73  43  33 W22G28    30.26F
LAUREL           N/A     72  44  36 S7        30.24F
ROUNDUP          N/A     72  44  36 SW9       30.14F
$$

REGIONAL REPORTS...DAKOTAS

CITY           SKY/WX    TMP DP  RH WIND       PRES   REMARKS
WILLISTON      SUNNY     68  36  30 W15       30.17F
MINOT          SUNNY     66  34  30 W20G33    30.10F
DICKINSON      SUNNY     64  33  31 NW14G25   30.17F
CROSBY           N/A     66  32  28 NW17G23   30.16F
WATFORD CITY     N/A     64  37  36 W14       30.17F
BISMARCK       SUNNY     67  33  28 NW18G28   30.12F
GRAND FORKS    MOSUNNY   63  41  44 NW28G35   29.91F
FARGO          SUNNY     66  33  29 NW26G37   29.93F
BUFFALO SD       N/A     68  39  34 NW30      30.14F
RAPID CITY     SUNNY     72  41  32 N23G31    30.21F
$$

REGIONAL REPORTS...WYOMING/IDAHO/WASHINGTON

CITY           SKY/WX    TMP DP  RH WIND       PRES   REMARKS
GILLETTE       SUNNY     67  44  43 NW10G25   30.30F
SHERIDAN       CLOUDY    71  46  40 W9        30.31F
BUFFALO WY     SUNNY     67  41  38 SE7       30.35F
CODY           SUNNY     68  43  40 E6        30.35F
YELLOWSTONE LA   N/A     55  39  54 VRB3      30.53F
IDAHO FALLS    SUNNY     68  43  40 N5        30.40F
SALMON         CLOUDY    64  45  48 CALM      30.35F
BOISE          SUNNY     79  36  21 SE8       30.27F
SPOKANE        MOSUNNY   72  45  37 E8        30.19F
$$

REGIONAL REPORTS...ALBERTA

CITY           SKY/WX    TMP DP  RH WIND       PRES   REMARKS
EDMONTON       MOSUNNY   75  45  33 S14       29.94F
CALGARY        MOSUNNY   68  43  40 S9        30.06F
LETHBRIDGE     PTSUNNY   77  39  25 W26       30.10F
MEDICINE HAT   PTSUNNY   73  45  35 SW13G18   30.10F
WATERTON GATE    N/A     70  39  32 SW14G22     N/A
CARDSTON         N/A     72  37  28 W7          N/A
$$

REGIONAL REPORTS...SASKATCHEWAN

CITY           SKY/WX    TMP DP  RH WIND       PRES   REMARKS
SWIFT CURRENT  SUNNY     66  37  34 VRB2      30.14F
REGINA         MOSUNNY   64  36  34 NW10G21   30.14F
SASKATOON      MOSUNNY   64  36  34 NW5       30.12F
VAL MARIE        N/A     70  37  30 W8          N/A
ASSINIBOIA       N/A     75  41  29 S12         N/A
$$



USA.gov is the U.S. government's official web portal to all federal, state and local government web resources and services.